Weather Roundup
Issued by NWS Springfield, MO

Home | Current Version | Previous Version | Text Only | Print | Product List | Glossary On
Versions: 1 2 3 4 5 6 7 8 9 10 11 12 13 14 15 16 17 18 19 20 21 22 23 24 25 26 27 28 29 30 31 32 33 34 35 36 37 38 39 40 41 42 43 44 45 46 47 48 49 50
000
NZUS99 KSGF 251607
HRRSGF

HOURLY WEATHER
NATIONAL WEATHER SERVICE SPRINGFIELD MO
1100 AM CDT SAT APR 25 2015

......SGF CWA......

CITY           SKY/WX    TMP DP  RH WIND       PRES   REMARKS
SPRINGFIELD    SUNNY     69  55  60 W17G30    29.53R
JOPLIN         MOSUNNY   68  54  60 W16G24    29.57R
WEST PLAINS    SUNNY     72  55  55 SW14G26   29.54F
ROLLA          LGT RAIN  66  56  70 SW15G21   29.47F
OSAGE BEACH    CLOUDY    70  55  60 SW17G30   29.48R
BRANSON        SUNNY     72  52  49 W13G23    29.57R

......SURROUNDING SGF CWA......

CITY           SKY/WX    TMP DP  RH WIND       PRES   REMARKS
CHANUTE        SUNNY     68  54  60 W17       29.54R
PARSONS        SUNNY     69  55  60 W14G21    29.57S
COFFEYVILLE    SUNNY     70  52  52 W17G28    29.57S
EMPORIA        MOSUNNY   63  54  72 W18G26    29.54R
GROVE OK       SUNNY     72  55  56 W10G21    29.61R
ROGERS AR      SUNNY     69  56  62 W13G25    29.61R
SILOAM SPRINGS SUNNY     70  54  56 W14G23    29.63R
HARRISON AR    SUNNY     73  50  44 W18G26    29.57S
NEAR YELLVILLE SUNNY     75  54  46 SW15      29.54F

......KANSAS AND MISSOURI......

CITY           SKY/WX    TMP DP  RH WIND       PRES   REMARKS
KANSAS CTY INT CLOUDY    60  55  83 SW7       29.47R
DOWNTOWN KC    CLOUDY    62  54  74 W6        29.46R
COLUMBIA       CLOUDY    65  59  81 S7        29.47S
SEDALIA        CLOUDY    66  56  70 SW16      29.47R
ST JOSEPH      CLOUDY    59  55  87 E9        29.49R
ST LOUIS       CLOUDY    62  57  83 SE8       29.52F
SPIRIT OF STL  CLOUDY    61  56  83 CALM      29.51F
KIRKSVILLE     LGT RAIN  52  52 100 E13       29.52R FOG
WICHITA        MOSUNNY   69  52  54 W18       29.59R
TOPEKA         CLOUDY    61  55  81 W13G22    29.46R
OLATHE         CLOUDY    60  55  83 W8        29.47R

......TENNESSEE......

CITY           SKY/WX    TMP DP  RH WIND       PRES   REMARKS
MEMPHIS        CLOUDY    69  65  86 SW13G25   29.65F
NASHVILLE      CLOUDY    69  62  78 S10       29.68F

......ARKANSAS.......

CITY           SKY/WX    TMP DP  RH WIND       PRES   REMARKS
FAYETTEVILLE   SUNNY     71  54  54 SW18G28   29.61S
FT SMITH       SUNNY     74  55  51 W15       29.62F
LITTLE ROCK    CLOUDY    70  61  73 W20G25    29.65R

......OKLAHOMA.......

CITY           SKY/WX    TMP DP  RH WIND       PRES   REMARKS
TULSA          SUNNY     73  53  49 W12       29.60R
PONCA CITY     SUNNY     72  51  47 W10G18    29.61R
MCALESTER      MOSUNNY   72  53  51 SW9       29.67S
OKLAHOMA CITY  SUNNY     74  52  46 SW10      29.66S

......IOWA............

CITY           SKY/WX    TMP DP  RH WIND       PRES   REMARKS
DES MOINES     CLOUDY    47  43  86 E15G23    29.63R
QUAD CITIES    LGT RAIN  46  43  89 NE18G26   29.68F FOG

......ILLINOIS........

CITY           SKY/WX    TMP DP  RH WIND       PRES   REMARKS
QUINCY         CLOUDY    51  49  92 E15       29.54S FOG
CHICAGO        LGT RAIN  43  39  86 E12       29.78R




USA.gov is the U.S. government's official web portal to all federal, state and local government web resources and services.